H1 CPF 2 NER 2023 5 22 9 142 01 glonass140 H2 1903001 9140 44299 2023 5 22 0 0 0 2023 5 25 23 45 0 900 1 1 0 0 0 1 H9 10 0 60086 0.00000 0 24881994.981 -5034456.746 -2395985.270 10 0 60086 900.00000 0 24956358.095 -5185484.021 809410.410 10 0 60086 1800.00000 0 24638656.742 -5241882.601 3999072.191 10 0 60086 2700.00000 0 23949689.489 -5152669.519 7111021.703 10 0 60086 3600.00000 0 22922207.740 -4872589.832 10084842.287 10 0 60086 4500.00000 0 21599510.979 -4364276.023 12862851.693 10 0 60086 5400.00000 0 20033621.495 -3600074.170 15391217.168 10 0 60086 6300.00000 0 18283116.338 -2563459.848 17620991.581 10 0 60086 7200.00000 0 16410708.176 -1249984.298 19509051.208 10 0 60086 8100.00000 0 14480676.582 332288.704 21018918.053 10 0 60086 9000.00000 0 12556256.841 2162873.527 22121452.151 10 0 60086 9900.00000 0 10697094.536 4209477.253 22795401.843 10 0 60086 10800.00000 0 8956870.816 6429112.917 23027802.832 10 0 60086 11700.00000 0 7381195.720 8769665.822 22814219.521 10 0 60086 12600.00000 0 6005855.616 11171848.849 22158824.891 10 0 60086 13500.00000 0 4855485.968 13571466.894 21074317.897 10 0 60086 14400.00000 0 3942723.143 15901897.974 19581680.040 10 0 60086 15300.00000 0 3267869.321 18096689.564 17709775.448 10 0 60086 16200.00000 0 2819083.510 20092163.867 15494801.434 10 0 60086 17100.00000 0 2573090.092 21829925.096 12979599.086 10 0 60086 18000.00000 0 2496375.028 23259165.396 10212835.990 10 0 60086 18900.00000 0 2546819.562 24338674.002 7248075.660 10 0 60086 19800.00000 0 2675703.030 25038465.975 4142750.478 10 0 60086 20700.00000 0 2829990.717 25340962.261 957057.114 10 0 60086 21600.00000 0 2954810.487 25241671.113 -2247204.873 10 0 60086 22500.00000 0 2996013.626 24749341.528 -5407829.126 10 0 60086 23400.00000 0 2902711.351 23885581.241 -8463410.095 10 0 60086 24300.00000 0 2629679.049 22683954.306 -11354538.495 10 0 60086 25200.00000 0 2139525.543 21188595.151 -14024961.019 10 0 60086 26100.00000 0 1404534.208 19452396.499 -16422681.096 10 0 60086 27000.00000 0 408096.439 17534846.597 -18500978.686 10 0 60086 27900.00000 0 -854325.039 15499606.134 -20219328.579 10 0 60086 28800.00000 0 -2374745.701 13411926.333 -21544198.647 10 0 60086 29700.00000 0 -4132742.676 11336016.502 -22449711.917 10 0 60086 30600.00000 0 -6096070.612 9332471.488 -22918159.032 10 0 60086 31500.00000 0 -8221785.862 7455867.016 -22940350.600 10 0 60086 32400.00000 0 -10457833.293 5752623.809 -22515802.160 10 0 60086 33300.00000 0 -12745030.360 4259229.962 -21652747.749 10 0 60086 34200.00000 0 -15019366.027 3000895.933 -20367981.509 10 0 60086 35100.00000 0 -17214518.632 1990698.120 -18686530.166 10 0 60086 36000.00000 0 -19264487.297 1229246.253 -16641162.649 10 0 60086 36900.00000 0 -21106226.411 704887.538 -14271746.467 10 0 60086 37800.00000 0 -22682172.438 394437.628 -11624463.645 10 0 60086 38700.00000 0 -23942556.724 264406.008 -8750901.947 10 0 60086 39600.00000 0 -24847406.991 272662.328 -5707039.855 10 0 60086 40500.00000 0 -25368153.438 370471.386 -2552145.936 10 0 60086 41400.00000 0 -25488772.278 504808.851 652384.893 10 0 60086 42300.00000 0 -25206419.244 620858.037 3844234.479 10 0 60086 43200.00000 0 -24531527.404 664580.509 6961379.476 10 0 60086 44100.00000 0 -23487366.373 585250.601 9943299.848 10 0 60086 45000.00000 0 -22109082.786 337845.815 12732153.774 10 0 60086 45900.00000 0 -20442263.625 -114808.346 15273896.017 10 0 60086 46800.00000 0 -18541083.805 -800229.742 17519318.334 10 0 60086 47700.00000 0 -16466116.416 -1734883.225 19424992.435 10 0 60086 48600.00000 0 -14281897.614 -2923255.024 20954098.285 10 0 60086 49500.00000 0 -12054347.655 -4357436.514 22077123.024 10 0 60086 50400.00000 0 -9848155.056 -6017234.710 22772418.423 10 0 60086 51300.00000 0 -7724231.646 -7870805.060 23026607.517 10 0 60086 52200.00000 0 -5737342.906 -9875780.635 22834833.778 10 0 60086 53100.00000 0 -3934010.395 -11980851.499 22200848.977 10 0 60086 54000.00000 0 -2350771.630 -14127729.685 21136938.545 10 0 60086 54900.00000 0 -1012867.967 -16253419.451 19663685.974 10 0 60086 55800.00000 0 66586.449 -18292699.892 17809580.453 10 0 60086 56700.00000 0 886921.352 -20180718.182 15610474.587 10 0 60086 57600.00000 0 1459700.368 -21855586.826 13108901.598 10 0 60086 58500.00000 0 1807993.667 -23260877.837 10353264.044 10 0 60086 59400.00000 0 1965164.015 -24347910.465 7396908.450 10 0 60086 60300.00000 0 1973217.124 -25077737.246 4297102.591 10 0 60086 61200.00000 0 1880785.541 -25422745.097 1113934.255 10 0 60086 62100.00000 0 1740830.848 -25367803.859 -2090847.858 10 0 60086 63000.00000 0 1608161.071 -24910913.194 -5255029.084 10 0 60086 63900.00000 0 1536868.326 -24063319.525 -8317136.401 10 0 60086 64800.00000 0 1577795.483 -22849096.838 -11217635.101 10 0 60086 65700.00000 0 1776139.784 -21304207.614 -13900090.837 10 0 60086 66600.00000 0 2169295.899 -19475082.179 -16312273.862 10 0 60086 67500.00000 0 2785031.047 -17416775.036 -18407183.327 10 0 60086 68400.00000 0 3640070.989 -15190774.770 -20143971.050 10 0 60086 69300.00000 0 4739158.444 -12862558.811 -21488746.071 10 0 60086 70200.00000 0 6074625.557 -10498995.191 -22415243.760 10 0 60086 71100.00000 0 7626500.343 -8165699.951 -22905345.869 10 0 60086 72000.00000 0 9363144.355 -5924460.795 -22949440.925 10 0 60086 72900.00000 0 11242396.320 -3830834.817 -22546617.485 10 0 60086 73800.00000 0 13213174.905 -1932020.743 -21704686.099 10 0 60086 74700.00000 0 15217474.177 -265094.595 -20440029.236 10 0 60086 75600.00000 0 17192668.491 1144317.726 -18777281.845 10 0 60086 76500.00000 0 19074030.222 2282875.992 -16748848.657 10 0 60086 77400.00000 0 20797354.445 3149835.241 -14394267.688 10 0 60086 78300.00000 0 22301580.006 3756817.701 -11759432.617 10 0 60086 79200.00000 0 23531296.371 4127058.273 -8895689.641 10 0 60086 80100.00000 0 24439030.432 4294157.191 -5858827.139 10 0 60086 81000.00000 0 24987216.798 4300394.503 -2707978.732 10 0 60086 81900.00000 0 25149768.627 4194679.615 495537.882 10 0 60086 82800.00000 0 24913183.143 4030224.531 3689422.602 10 0 60086 83700.00000 0 24277135.889 3862040.957 6811610.730 10 0 60086 84600.00000 0 23254539.549 3744368.601 9801482.414 10 0 60086 85500.00000 0 21871065.921 3728144.460 12601039.654 10 0 60087 0.00000 0 20164152.341 3858620.663 15156027.651 10 0 60087 900.00000 0 18181534.278 4173231.790 17416980.346 10 0 60087 1800.00000 0 15979368.666 4699801.244 19340167.141 10 0 60087 2700.00000 0 13620023.813 5455162.120 20888428.083 10 0 60087 3600.00000 0 11169630.269 6444249.973 22031879.160 10 0 60087 4500.00000 0 8695493.372 7659705.228 22748476.906 10 0 60087 5400.00000 0 6263474.236 9082001.752 23024432.572 10 0 60087 6300.00000 0 3935446.615 10680096.372 22854469.128 10 0 60087 7200.00000 0 1766933.583 12412572.704 22241917.062 10 0 60087 8100.00000 0 -194979.746 14229232.467 21198647.707 10 0 60087 9000.00000 0 -1913372.682 16073069.143 19744845.480 10 0 60087 9900.00000 0 -3362784.591 17882543.060 17908623.110 10 0 60087 10800.00000 0 -4530027.331 19594064.570 15725486.562 10 0 60087 11700.00000 0 -5414481.815 21144583.144 13237658.934 10 0 60087 12600.00000 0 -6027867.141 22474175.470 10493275.227 10 0 60087 13500.00000 0 -6393492.422 23528525.269 7545462.250 10 0 60087 14400.00000 0 -6545022.827 24261191.523 4451320.294 10 0 60087 15300.00000 0 -6524811.661 24635570.031 1270825.310 10 0 60087 16200.00000 0 -6381868.530 24626465.555 -1934327.859 10 0 60087 17100.00000 0 -6169549.145 24221207.653 -5101919.202 10 0 60087 18000.00000 0 -5943064.330 23420262.065 -8170411.106 10 0 60087 18900.00000 0 -5756913.727 22237310.533 -11080146.146 10 0 60087 19800.00000 0 -5662353.249 20698794.100 -13774511.432 10 0 60087 20700.00000 0 -5705004.214 18842937.572 -16201046.279 10 0 60087 21600.00000 0 -5922706.378 16718294.682 -18312470.989 10 0 60087 22500.00000 0 -6343707.016 14381873.784 -20067616.080 10 0 60087 23400.00000 0 -6985264.100 11896921.722 -21432233.152 10 0 60087 24300.00000 0 -7852724.202 9330458.016 -22379671.029 10 0 60087 25200.00000 0 -8939115.707 6750662.083 -22891403.403 10 0 60087 26100.00000 0 -10225276.056 4224222.572 -22957397.240 10 0 60087 27000.00000 0 -11680509.089 1813759.469 -22576314.294 10 0 60087 27900.00000 0 -13263746.014 -424573.418 -21755541.439 10 0 60087 28800.00000 0 -14925162.003 -2443205.466 -20511048.877 10 0 60087 29700.00000 0 -16608180.973 -4204897.572 -18867078.793 10 0 60087 30600.00000 0 -18251784.409 -5684049.170 -16855670.348 10 0 60087 31500.00000 0 -19793026.978 -6867510.000 -14516030.371 10 0 60087 32400.00000 0 -21169652.693 -7754863.759 -11893762.236 10 0 60087 33300.00000 0 -22322700.975 -8358173.216 -9039968.403 10 0 60087 34200.00000 0 -23198992.260 -8701199.284 -6010244.846 10 0 60087 35100.00000 0 -23753387.921 -8818128.993 -2863587.830 10 0 60087 36000.00000 0 -23950728.948 -8751868.130 338764.652 10 0 60087 36900.00000 0 -23767371.588 -8551972.766 3534533.112 10 0 60087 37800.00000 0 -23192255.459 -8272309.032 6661614.116 10 0 60087 38700.00000 0 -22227459.672 -7968541.764 9659290.640 10 0 60087 39600.00000 0 -20888224.235 -7695559.454 12469411.137 10 0 60087 40500.00000 0 -19202436.725 -7504945.168 15037514.254 10 0 60087 41400.00000 0 -17209606.531 -7442600.572 17313877.622 10 0 60087 42300.00000 0 -14959370.350 -7546623.243 19254471.028 10 0 60087 43200.00000 0 -12509591.775 -7845526.292 20821796.525 10 0 60087 44100.00000 0 -9924134.279 -8356874.590 21985600.530 10 0 60087 45000.00000 0 -7270399.936 -9086394.271 22723445.546 10 0 60087 45900.00000 0 -4616735.321 -10027592.323 23021131.871 10 0 60087 46800.00000 0 -2029810.999 -11161901.960 22872962.432 10 0 60087 47700.00000 0 427918.274 -12459347.753 22281846.564 10 0 60087 48600.00000 0 2700569.158 -13879703.202 21259241.325 10 0 60087 49500.00000 0 4740905.379 -15374093.235 19824931.601 10 0 60087 50400.00000 0 6512049.066 -16886975.826 18006652.934 10 0 60087 51300.00000 0 7988758.351 -18358421.271 15839563.648 10 0 60087 52200.00000 0 9158219.411 -19726595.223 13365575.439 10 0 60087 53100.00000 0 10020320.921 -20930342.871 10632554.173 10 0 60087 54000.00000 0 10587400.100 -21911767.016 7693405.085 10 0 60087 54900.00000 0 10883471.287 -22618692.637 4605058.851 10 0 60087 55800.00000 0 10942969.469 -23006914.650 1427377.225 10 0 60087 56700.00000 0 10809061.474 -23042134.122 -1778001.355 10 0 60087 57600.00000 0 10531595.795 -22701500.740 -4948854.211 10 0 60087 58500.00000 0 10164777.412 -21974695.451 -8023581.901 10 0 60087 59400.00000 0 9764665.883 -20864506.165 -10942407.097 10 0 60087 60300.00000 0 9386602.666 -19386870.597 -13648541.179 10 0 60087 61200.00000 0 9082677.021 -17570382.618 -16089295.283 10 0 60087 62100.00000 0 8899338.413 -15455281.150 -18217113.511 10 0 60087 63000.00000 0 8875257.396 -13091962.415 -19990507.547 10 0 60087 63900.00000 0 9039526.603 -10539076.622 -21374873.764 10 0 60087 64800.00000 0 9410279.145 -7861287.724 -22343176.319 10 0 60087 65700.00000 0 9993784.145 -5126789.184 -22876482.350 10 0 60087 66600.00000 0 10784058.878 -2404679.122 -22964338.362 10 0 60087 67500.00000 0 11763015.090 237695.832 -22604979.994 10 0 60087 68400.00000 0 12901134.364 2737317.260 -21805370.723 10 0 60087 69300.00000 0 14158644.815 5037884.757 -20581068.385 10 0 60087 70200.00000 0 15487150.013 7091919.227 -18955921.913 10 0 60087 71100.00000 0 16831641.660 8862492.120 -16961604.038 10 0 60087 72000.00000 0 18132811.021 10324508.881 -14636989.152 10 0 60087 72900.00000 0 19329561.243 11465493.765 -12027388.672 10 0 60087 73800.00000 0 20361614.038 12285844.413 -9183659.276 10 0 60087 74700.00000 0 21172099.993 12798547.055 -6161202.105 10 0 60087 75600.00000 0 21710022.550 13028366.268 -3018873.301 10 0 60087 76500.00000 0 21932491.082 13010545.494 182171.877 10 0 60087 77400.00000 0 21806628.445 12789075.288 3379677.742 10 0 60087 78300.00000 0 21311072.441 12414604.502 6511505.377 10 0 60087 79200.00000 0 20437008.063 11942084.472 9516843.803 10 0 60087 80100.00000 0 19188687.447 11428247.236 12337391.024 10 0 60087 81000.00000 0 17583416.220 10929025.331 14918481.823 10 0 60087 81900.00000 0 15651007.447 10497022.639 17210140.664 10 0 60087 82800.00000 0 13432726.565 10179142.976 19168039.896 10 0 60087 83700.00000 0 10979771.787 10014475.965 20754345.709 10 0 60087 84600.00000 0 8351353.376 10032528.432 21938436.765 10 0 60087 85500.00000 0 5612451.439 10251874.776 22697482.999 10 0 60088 0.00000 0 2831344.911 10679282.050 23016874.819 10 0 60088 900.00000 0 77011.600 11309345.963 22890495.803 10 0 60088 1800.00000 0 -2583490.678 12124652.051 22320834.238 10 0 60088 2700.00000 0 -5087560.069 13096455.948 21318932.550 10 0 60088 3600.00000 0 -7379396.863 14185854.186 19904175.223 10 0 60088 4500.00000 0 -9412065.898 15345397.456 18103919.236 10 0 60088 5400.00000 0 -11149191.084 16521079.837 15952973.459 10 0 60088 6300.00000 0 -12566213.061 17654621.910 13492935.989 10 0 60088 7200.00000 0 -13651158.687 18685953.273 10771401.074 10 0 60088 8100.00000 0 -14404891.032 19555791.391 7841049.680 10 0 60088 9000.00000 0 -14840829.802 20208209.260 4758640.052 10 0 60088 9900.00000 0 -14984154.001 20593084.296 1583916.843 10 0 60088 10800.00000 0 -14870520.196 20668325.295 -1621540.833 10 0 60088 11700.00000 0 -14544350.086 20401783.087 -4795510.555 10 0 60088 12600.00000 0 -14056759.318 19772763.298 -7876333.917 10 0 60088 13500.00000 0 -13463214.790 18773076.016 -10804116.440 10 0 60088 14400.00000 0 -12821019.417 17407576.351 -13521896.371 10 0 60088 15300.00000 0 -12186730.895 15694171.209 -15976759.037 10 0 60088 16200.00000 0 -11613624.033 13663289.985 -18120874.444 10 0 60088 17100.00000 0 -11149304.603 11356839.501 -19912437.245 10 0 60088 18000.00000 0 -10833576.403 8826685.354 -21316490.062 10 0 60088 18900.00000 0 -10696652.617 6132721.825 -22305613.535 10 0 60088 19800.00000 0 -10757788.059 3340610.006 -22860469.054 10 0 60088 20700.00000 0 -11024391.017 519277.876 -22970183.116 10 0 60088 21600.00000 0 -11491653.141 -2261713.783 -22632565.332 10 0 60088 22500.00000 0 -12142713.737 -4934830.011 -21854155.485 10 0 60088 23400.00000 0 -12949352.101 -7437134.013 -20650098.356 10 0 60088 24300.00000 0 -13873179.003 -9712666.006 -19043848.549 10 0 60088 25200.00000 0 -14867277.062 -11714529.421 -17066710.940 10 0 60088 26100.00000 0 -15878220.527 -13406597.646 -14757225.746 10 0 60088 27000.00000 0 -16848388.693 -14764770.516 -12160410.449 10 0 60088 27900.00000 0 -17718474.499 -15777728.907 -9326873.789 10 0 60088 28800.00000 0 -18430081.520 -16447157.083 -6311819.793 10 0 60088 29700.00000 0 -18928298.703 -16787425.097 -3173962.128 10 0 60088 30600.00000 0 -19164143.254 -16824746.574 25629.086 10 0 60088 31500.00000 0 -19096767.824 -16595849.397 3224724.424 10 0 60088 32400.00000 0 -18695338.358 -16146217.504 6361151.973 10 0 60088 33300.00000 0 -17940503.239 -15527979.908 9374009.321 10 0 60088 34200.00000 0 -16825391.896 -14797537.735 12204846.539 10 0 60088 35100.00000 0 -15356101.157 -14013030.671 14798797.008 10 0 60088 36000.00000 0 -13551649.329 -13231750.415 17105634.371 10 0 60088 36900.00000 0 -11443400.306 -12507610.406 19080735.689 10 0 60088 37800.00000 0 -9073982.096 -11888778.025 20685933.187 10 0 60088 38700.00000 0 -6495744.879 -11415568.164 21890239.362 10 0 60088 39600.00000 0 -3768822.542 -11118685.619 22670432.827 10 0 60088 40500.00000 0 -958877.587 -11017888.905 23011495.018 10 0 60088 41400.00000 0 1865378.108 -11121130.424 22906890.601 10 0 60088 42300.00000 0 4634785.268 -11424208.065 22358687.145 10 0 60088 43200.00000 0 7282355.827 -11910942.275 21377512.389 10 0 60088 44100.00000 0 9745801.551 -12553870.995 19982350.065 10 0 60088 45000.00000 0 11969869.658 -13315433.611 18200177.986 10 0 60088 45900.00000 0 13908390.327 -14149594.941 16065454.662 10 0 60088 46800.00000 0 15525952.508 -15003842.086 13619463.381 10 0 60088 47700.00000 0 16799139.472 -15821471.374 10909525.238 10 0 60088 48600.00000 0 17717273.394 -16544070.362 7988095.037 10 0 60088 49500.00000 0 18282638.310 -17114091.364 4911756.358 10 0 60088 50400.00000 0 18510172.191 -17477408.685 1740134.211 10 0 60088 51300.00000 0 18426640.917 -17585751.916 -1465254.401 10 0 60088 52200.00000 0 18069328.566 -17398912.299 -4642190.255 10 0 60088 53100.00000 0 17484298.760 -16886628.225 -7728958.998 10 0 60088 54000.00000 0 16724300.052 -16030068.956 -10665552.010 10 0 60088 54900.00000 0 15846403.497 -14822852.313 -13394837.332 10 0 60088 55800.00000 0 14909472.147 -13271551.425 -15863677.276 10 0 60088 56700.00000 0 13971569.503 -11395667.078 -18023970.361 10 0 60088 57600.00000 0 13087416.752 -9227064.718 -19833596.575 10 0 60088 58500.00000 0 12306006.740 -6808897.710 -21257246.869 10 0 60088 59400.00000 0 11668476.075 -4194060.268 -22267120.098 10 0 60088 60300.00000 0 11206325.889 -1443233.319 -22843473.262 10 0 60088 61200.00000 0 10940067.075 1377396.079 -22975013.790 10 0 60088 62100.00000 0 10878347.768 4198647.299 -22659125.793 10 0 60088 63000.00000 0 11017600.388 6950986.292 -21901925.468 10 0 60088 63900.00000 0 11342223.444 9567183.374 -20718144.252 10 0 60088 64800.00000 0 11825290.483 11984877.852 -19130841.758 10 0 60088 65700.00000 0 12429756.116 14148942.518 -17170953.964 10 0 60088 66600.00000 0 13110107.715 16013549.321 -14876685.515 10 0 60088 67500.00000 0 13814392.336 17543850.230 -12292758.196 10 0 60088 68400.00000 0 14486532.300 18717203.503 -9469530.697 10 0 60088 69300.00000 0 15068830.485 19523894.921 -6462007.489 10 0 60088 70200.00000 0 15504558.297 19967325.037 -3328757.029 10 0 60088 71100.00000 0 15740515.821 20063656.222 -130761.342 10 0 60088 72000.00000 0 15729454.976 19840936.245 3069779.498 10 0 60088 72900.00000 0 15432262.563 19337737.337 6210663.726 10 0 60088 73800.00000 0 14819810.582 18601370.049 9230900.584 10 0 60088 74700.00000 0 13874395.570 17685749.002 12071895.175 10 0 60088 75600.00000 0 12590706.424 16649001.910 14678582.258 10 0 60088 76500.00000 0 10976280.174 15550923.585 17000487.211 10 0 60088 77400.00000 0 9051426.887 14450382.525 18992694.122 10 0 60088 78300.00000 0 6848627.003 13402789.056 20616703.291 10 0 60088 79200.00000 0 4411426.297 12457730.754 21841162.790 10 0 60088 80100.00000 0 1792874.242 11656873.335 22642461.318 10 0 60088 81000.00000 0 -946429.860 11032213.740 23005172.366 10 0 60088 81900.00000 0 -3740602.840 10604757.142 22922342.363 10 0 60088 82800.00000 0 -6520963.053 10383671.998 22395618.267 10 0 60088 83700.00000 0 -9218633.755 10365957.366 21435212.771 10 0 60088 84600.00000 0 -11767158.437 10536635.708 20059707.997 10 0 60088 85500.00000 0 -14105021.448 10869462.788 18295701.201 10 0 60089 0.00000 0 -16177970.985 11328124.964 16177298.891 10 0 60089 900.00000 0 -17941050.512 11867874.431 13745466.911 10 0 60089 1800.00000 0 -19360252.627 12437533.830 11047250.797 10 0 60089 2700.00000 0 -20413730.979 12981787.651 8134876.403 10 0 60089 3600.00000 0 -21092517.249 13443664.205 5064749.712 10 0 60089 4500.00000 0 -21400714.441 13767104.402 1896373.122 10 0 60089 5400.00000 0 -21355157.959 13899509.235 -1308801.463 10 0 60089 6300.00000 0 -20984558.282 13794158.273 -4488560.962 10 0 60089 7200.00000 0 -20328160.743 13412396.378 -7581137.957 10 0 60089 8100.00000 0 -19433978.348 12725495.167 -10526412.469 10 0 60089 9000.00000 0 -18356671.654 11716109.078 -13267084.960 10 0 60089 9900.00000 0 -17155164.835 10379262.684 -15749797.151 10 0 60089 10800.00000 0 -15890098.427 8722825.516 -17926178.206 10 0 60089 11700.00000 0 -14621226.293 6767452.170 -19753795.252 10 0 60089 12600.00000 0 -13404866.890 4545988.022 -21196988.980 10 0 60089 13500.00000 0 -12291516.722 2102363.480 -22227577.462 10 0 60089 14400.00000 0 -11323727.039 -509978.686 -22825413.870 10 0 60089 15300.00000 0 -10534333.765 -3230058.511 -22978786.710 10 0 60089 16200.00000 0 -9945115.632 -5991655.016 -22684654.307 10 0 60089 17100.00000 0 -9565937.326 -8725828.197 -21948708.589 10 0 60089 18000.00000 0 -9394413.853 -11363561.895 -20785266.580 10 0 60089 18900.00000 0 -9416110.116 -13838417.381 -19216991.490 10 0 60089 19800.00000 0 -9605266.878 -16089086.849 -17274448.694 10 0 60089 20700.00000 0 -9926021.811 -18061740.101 -14995505.321 10 0 60089 21600.00000 0 -10334073.150 -19712066.370 -12424585.361 10 0 60089 22500.00000 0 -10778714.533 -21006926.087 -9611795.254 10 0 60089 23400.00000 0 -11205153.707 -21925543.940 -6611937.690 10 0 60089 24300.00000 0 -11557015.710 -22460194.088 -3483433.695 10 0 60089 25200.00000 0 -11778923.286 -22616350.017 -287175.007 10 0 60089 26100.00000 0 -11819044.202 -22412294.325 2914669.820 10 0 60089 27000.00000 0 -11631496.741 -21878206.654 6059871.322 10 0 60089 27900.00000 0 -11178510.991 -21054770.045 9087352.546 10 0 60089 28800.00000 0 -10432254.267 -19991356.184 11938375.766 10 0 60089 29700.00000 0 -9376243.542 -18743867.487 14557679.238 10 0 60089 30600.00000 0 -8006285.459 -17372327.971 16894542.103 10 0 60089 31500.00000 0 -6330904.627 -15938324.836 18903757.380 10 0 60089 32400.00000 0 -4371242.361 -14502408.326 20546495.158 10 0 60089 33300.00000 0 -2160430.119 -13121558.451 21791040.563 10 0 60089 34200.00000 0 257536.420 -11846823.803 22613393.596 10 0 60089 35100.00000 0 2829376.288 -10721229.974 22997720.725 10 0 60089 36000.00000 0 5494490.413 -9778043.484 22936650.773 10 0 60089 36900.00000 0 8187236.590 -9039462.224 22431410.434 10 0 60089 37800.00000 0 10839419.366 -8515785.643 21491797.442 10 0 60089 38700.00000 0 13382893.342 -8205098.141 20135992.120 10 0 60089 39600.00000 0 15752173.657 -8093478.081 18390210.727 10 0 60089 40500.00000 0 17886947.079 -8155723.211 16288206.637 10 0 60089 41400.00000 0 19734380.927 -8356562.100 13870627.988 10 0 60089 42300.00000 0 21251134.992 -8652301.052 11184243.044 10 0 60089 43200.00000 0 22404993.493 -8992837.862 8281046.978 10 0 60089 44100.00000 0 23176049.412 -9323958.287 5217266.079 10 0 60089 45000.00000 0 23557391.717 -9589819.038 2052277.661 10 0 60089 45900.00000 0 23555266.404 -9735512.865 -1152534.228 10 0 60089 46800.00000 0 23188704.062 -9709607.430 -4334965.632 10 0 60089 47700.00000 0 22488628.908 -9466550.270 -7433199.162 10 0 60089 48600.00000 0 21496486.015 -8968837.310 -10387006.575 10 0 60089 49500.00000 0 20262443.861 -8188851.973 -13138923.767 10 0 60089 50400.00000 0 18843247.325 -7110295.472 -15635374.708 10 0 60089 51300.00000 0 17299811.234 -5729145.913 -17827721.844 10 0 60089 52200.00000 0 15694655.643 -4054103.563 -19673221.809 10 0 60089 53100.00000 0 14089290.908 -2106501.286 -21135867.128 10 0 60089 54000.00000 0 12541662.830 80318.257 -22187096.856 10 0 60089 54900.00000 0 11103765.633 2462134.513 -22806361.761 10 0 60089 55800.00000 0 9819523.550 4985444.260 -22981532.463 10 0 60089 56700.00000 0 8723030.342 7589454.727 -22709142.141 10 0 60089 57600.00000 0 7837220.916 10208392.204 -21994458.681 10 0 60089 58500.00000 0 7173030.891 12774030.203 -20851384.506 10 0 60089 59400.00000 0 6729079.149 15218331.799 -19302185.816 10 0 60089 60300.00000 0 6491886.181 17476095.731 -17377056.383 10 0 60089 61200.00000 0 6436618.162 19487495.494 -15113524.419 10 0 60089 62100.00000 0 6528324.265 21200405.061 -12555714.336 10 0 60089 63000.00000 0 6723613.613 22572413.837 -9753478.177 10 0 60089 63900.00000 0 6972699.517 23572446.544 -6761414.361 10 0 60089 64800.00000 0 7221722.960 24181920.602 -3637793.710 10 0 60089 65700.00000 0 7415255.478 24395393.261 -443414.669 10 0 60089 66600.00000 0 7498874.056 24220672.448 2759588.878 10 0 60089 67500.00000 0 7421697.865 23678388.195 5908962.964 10 0 60089 68400.00000 0 7138778.603 22801044.293 8943547.596 10 0 60089 69300.00000 0 6613242.750 21631591.772 11804465.259 10 0 60089 70200.00000 0 5818095.040 20221585.730 14436260.547 10 0 60089 71100.00000 0 4737606.989 18629004.211 16787968.999 10 0 60089 72000.00000 0 3368232.227 16915821.555 18814094.935 10 0 60089 72900.00000 0 1719010.297 15145438.247 20475480.327 10 0 60089 73800.00000 0 -188557.910 13380074.704 21740049.144 10 0 60089 74700.00000 0 -2321157.994 11678237.222 22583414.145 10 0 60089 75600.00000 0 -4634806.516 10092360.746 22989335.855 10 0 60089 76500.00000 0 -7076445.224 8666725.300 22950026.153 10 0 60089 77400.00000 0 -9585919.764 7435731.293 22466291.663 10 0 60089 78300.00000 0 -12098262.092 6422603.895 21547514.845 10 0 60089 79200.00000 0 -14546183.450 5638578.977 20211473.381 10 0 60089 80100.00000 0 -16862676.126 5082603.287 18484001.152 10 0 60089 81000.00000 0 -18983617.620 4741560.501 16398496.712 10 0 60089 81900.00000 0 -20850270.581 4591013.160 13995287.758 10 0 60089 82800.00000 0 -22411575.659 4596429.301 11320862.741 10 0 60089 83700.00000 0 -23626142.664 4714842.469 8426983.147 10 0 60089 84600.00000 0 -24463857.368 4896875.706 5369692.388 10 0 60089 85500.00000 0 -24907036.779 5089044.708 2208239.439 99